| time (UTC) | temp C | wind direction | speed KPH | gust KPH | rain 1hr cm | rain 24hr cm | rain mn cm | humidity % | barometer mb |
| 20260506220552 | 7 | 263 | 0.0 | 1.6 | 0.00 | 0.00 | 0.00 | 80 | 1013.7 |
| 20260506220055 | 7 | 263 | 0.0 | 1.6 | 0.00 | 0.00 | 0.00 | 80 | 1013.7 |
| 20260506213553 | 7 | 263 | 0.0 | 0.0 | 0.00 | 0.00 | 0.00 | 79 | 1013.6 |
| 20260506213054 | 7 | 263 | 0.0 | 0.0 | 0.00 | 0.00 | 0.00 | 78 | 1013.7 |
| 20260506211553 | 7 | 263 | 0.0 | 0.0 | 0.00 | 0.00 | 0.00 | 77 | 1013.8 |
| 20260506210553 | 8 | 263 | 0.0 | 0.0 | 0.00 | 0.00 | 0.00 | 77 | 1013.8 |
| 20260506204053 | 8 | 264 | 0.0 | 0.0 | 0.00 | 0.00 | 0.00 | 76 | 1013.8 |
| 20260506203553 | 8 | 264 | 0.0 | 0.0 | 0.00 | 0.00 | 0.00 | 75 | 1013.8 |
| 20260506203054 | 8 | 264 | 0.0 | 0.0 | 0.00 | 0.00 | 0.00 | 75 | 1013.8 |
| 20260506201553 | 8 | 264 | 0.0 | 0.0 | 0.00 | 0.00 | 0.00 | 75 | 1013.8 |
| 20260506201053 | 8 | 264 | 0.0 | 1.6 | 0.00 | 0.00 | 0.00 | 74 | 1013.8 |
| 20260506200056 | 8 | 263 | 0.0 | 4.8 | 0.00 | 0.00 | 0.00 | 74 | 1013.8 |
| 20260506193553 | 9 | 269 | 0.0 | 4.8 | 0.00 | 0.00 | 0.00 | 72 | 1013.8 |
| 20260506190553 | 10 | 261 | 1.6 | 4.8 | 0.00 | 0.00 | 0.00 | 67 | 1013.8 |
| 20260506190054 | 10 | 259 | 1.6 | 11.3 | 0.00 | 0.00 | 0.00 | 67 | 1013.8 |
| 20260506184553 | 10 | 228 | 3.2 | 8.0 | 0.00 | 0.00 | 0.00 | 63 | 1013.8 |
| 20260506183054 | 11 | 249 | 1.6 | 11.3 | 0.00 | 0.00 | 0.00 | 64 | 1013.7 |
| 20260506181553 | 11 | 221 | 3.2 | 9.7 | 0.00 | 0.00 | 0.00 | 62 | 1013.7 |
| 20260506181053 | 11 | 244 | 4.8 | 12.9 | 0.00 | 0.00 | 0.00 | 62 | 1013.6 |
| 20260506180055 | 11 | 276 | 3.2 | 9.7 | 0.00 | 0.00 | 0.00 | 61 | 1013.6 |
| 20260506170553 | 11 | 103 | 1.6 | 4.8 | 0.00 | 0.00 | 0.00 | 59 | 1013.7 |
| 20260506164553 | 11 | 107 | 1.6 | 4.8 | 0.00 | 0.00 | 0.00 | 58 | 1013.9 |
| 20260506164053 | 11 | 102 | 3.2 | 4.8 | 0.00 | 0.00 | 0.00 | 58 | 1013.9 |
| 20260506163553 | 11 | 96 | 3.2 | 4.8 | 0.00 | 0.00 | 0.00 | 57 | 1013.9 |
| 20260506161553 | 12 | 91 | 3.2 | 9.7 | 0.00 | 0.00 | 0.00 | 55 | 1013.9 |
| 20260506161053 | 12 | 91 | 3.2 | 9.7 | 0.00 | 0.00 | 0.00 | 54 | 1014.0 |
| 20260506160553 | 12 | 90 | 1.6 | 4.8 | 0.00 | 0.00 | 0.00 | 53 | 1014.0 |
| 20260506154553 | 12 | 109 | 4.8 | 9.7 | 0.00 | 0.00 | 0.00 | 54 | 1014.3 |
| 20260506153553 | 12 | 110 | 4.8 | 9.7 | 0.00 | 0.00 | 0.00 | 53 | 1014.3 |
| 20260506151054 | 13 | 116 | 4.8 | 9.7 | 0.00 | 0.00 | 0.00 | 52 | 1014.5 |
| 20260506144554 | 13 | 102 | 4.8 | 9.7 | 0.00 | 0.00 | 0.00 | 51 | 1014.7 |
| 20260506141053 | 13 | 19 | 4.8 | 12.9 | 0.00 | 0.00 | 0.00 | 50 | 1014.9 |
| 20260506134553 | 13 | 61 | 3.2 | 8.0 | 0.00 | 0.00 | 0.00 | 49 | 1015.2 |
| 20260506134053 | 13 | 64 | 1.6 | 12.9 | 0.00 | 0.00 | 0.00 | 50 | 1015.2 |
| 20260506131054 | 14 | 45 | 4.8 | 16.1 | 0.00 | 0.00 | 0.00 | 50 | 1015.3 |
| 20260506130554 | 14 | 42 | 4.8 | 12.9 | 0.00 | 0.00 | 0.00 | 51 | 1015.2 |
| 20260506124554 | 13 | 130 | 6.4 | 11.3 | 0.00 | 0.00 | 0.00 | 52 | 1015.3 |
| 20260506123553 | 12 | 138 | 6.4 | 14.5 | 0.00 | 0.00 | 0.00 | 52 | 1015.5 |
| 20260506123055 | 13 | 73 | 4.8 | 16.1 | 0.00 | 0.00 | 0.00 | 51 | 1015.4 |
| 20260506121053 | 12 | 54 | 1.6 | 4.8 | 0.00 | 0.00 | 0.00 | 49 | 1015.6 |
| 20260506120554 | 12 | 57 | 3.2 | 12.9 | 0.00 | 0.00 | 0.00 | 52 | 1015.6 |
| 20260506120055 | 13 | 94 | 4.8 | 12.9 | 0.00 | 0.00 | 0.00 | 52 | 1015.6 |
| 20260506111553 | 12 | 81 | 3.2 | 9.7 | 0.00 | 0.00 | 0.00 | 53 | 1016.1 |
| 20260506111054 | 12 | 75 | 8.0 | 12.9 | 0.00 | 0.00 | 0.00 | 54 | 1016.1 |
| 20260506110055 | 11 | 59 | 4.8 | 12.9 | 0.00 | 0.00 | 0.00 | 56 | 1016.1 |
| 20260506104053 | 11 | 88 | 3.2 | 12.9 | 0.00 | 0.00 | 0.00 | 53 | 1016.2 |
| 20260506101553 | 11 | 120 | 3.2 | 11.3 | 0.00 | 0.00 | 0.00 | 53 | 1016.4 |
| 20260506100553 | 11 | 32 | 4.8 | 9.7 | 0.00 | 0.00 | 0.00 | 53 | 1016.5 |
| 20260506091553 | 10 | 48 | 8.0 | 14.5 | 0.00 | 0.00 | 0.00 | 59 | 1016.9 |
| 20260506091053 | 10 | 53 | 4.8 | 12.9 | 0.00 | 0.00 | 0.00 | 59 | 1016.9 |
| 20260506090105 | 9 | 66 | 8.0 | 16.1 | 0.00 | 0.00 | 0.00 | 61 | 1016.9 |
| 20260506084554 | 8 | 95 | 3.2 | 14.5 | 0.00 | 0.00 | 0.00 | 63 | 1017.1 |
| 20260506083553 | 8 | 29 | 6.4 | 14.5 | 0.00 | 0.00 | 0.00 | 64 | 1017.1 |
| 20260506081554 | 8 | 35 | 6.4 | 19.3 | 0.00 | 0.00 | 0.00 | 66 | 1017.1 |
| 20260506081054 | 8 | 49 | 8.0 | 16.1 | 0.00 | 0.00 | 0.00 | 66 | 1017.1 |
| 20260506080554 | 8 | 71 | 8.0 | 19.3 | 0.00 | 0.00 | 0.00 | 67 | 1017.0 |
| 20260506073055 | 6 | 70 | 3.2 | 14.5 | 0.00 | 0.00 | 0.00 | 74 | 1017.0 |
| 20260506071553 | 6 | 57 | 3.2 | 8.0 | 0.00 | 0.00 | 0.00 | 76 | 1017.1 |
| 20260506070554 | 6 | 54 | 3.2 | 4.8 | 0.00 | 0.00 | 0.00 | 77 | 1017.1 |
| 20260506061054 | 5 | 53 | 3.2 | 4.8 | 0.00 | 0.00 | 0.00 | 79 | 1017.1 |
| 20260506051054 | 4 | 67 | 0.0 | 0.0 | 0.00 | 0.00 | 0.00 | 80 | 1017.2 |
| 20260506043554 | 4 | 69 | 0.0 | 1.6 | 0.00 | 0.00 | 0.00 | 79 | 1017.2 |
| 20260506043055 | 4 | 69 | 0.0 | 0.0 | 0.00 | 0.00 | 0.00 | 79 | 1017.1 |
| 20260506041554 | 4 | 69 | 0.0 | 1.6 | 0.00 | 0.00 | 0.00 | 78 | 1017.1 |
| 20260506041054 | 4 | 69 | 1.6 | 3.2 | 0.00 | 0.00 | 0.00 | 78 | 1017.1 |
| 20260506040056 | 5 | 69 | 0.0 | 4.8 | 0.00 | 0.00 | 0.00 | 78 | 1017.1 |
| 20260506034554 | 5 | 71 | 1.6 | 4.8 | 0.00 | 0.00 | 0.00 | 77 | 1017.1 |
| 20260506033554 | 5 | 71 | 1.6 | 4.8 | 0.00 | 0.00 | 0.00 | 77 | 1017.2 |
| 20260506031054 | 5 | 69 | 1.6 | 4.8 | 0.00 | 0.00 | 0.00 | 77 | 1017.2 |
| 20260506030554 | 5 | 71 | 1.6 | 3.2 | 0.00 | 0.00 | 0.00 | 77 | 1017.3 |
| 20260506024554 | 5 | 73 | 1.6 | 3.2 | 0.00 | 0.00 | 0.00 | 76 | 1017.3 |
| 20260506024054 | 5 | 72 | 1.6 | 4.8 | 0.00 | 0.00 | 0.00 | 76 | 1017.3 |
| 20260506023555 | 5 | 73 | 1.6 | 4.8 | 0.00 | 0.00 | 0.00 | 76 | 1017.2 |
| 20260506021054 | 5 | 52 | 3.2 | 4.8 | 0.00 | 0.00 | 0.00 | 76 | 1017.4 |
| 20260506014554 | 5 | 61 | 1.6 | 4.8 | 0.00 | 0.00 | 0.00 | 75 | 1017.4 |
| 20260506014054 | 5 | 60 | 1.6 | 4.8 | 0.00 | 0.00 | 0.00 | 75 | 1017.4 |
| 20260506013555 | 5 | 61 | 3.2 | 4.8 | 0.00 | 0.00 | 0.00 | 75 | 1017.4 |
| 20260506011554 | 6 | 55 | 1.6 | 4.8 | 0.00 | 0.00 | 0.00 | 75 | 1017.7 |
| 20260506010056 | 6 | 50 | 1.6 | 4.8 | 0.00 | 0.00 | 0.00 | 75 | 1017.7 |
| 20260506004055 | 6 | 38 | 3.2 | 8.0 | 0.00 | 0.00 | 0.00 | 74 | 1017.8 |
| 20260506003055 | 6 | 45 | 1.6 | 4.8 | 0.00 | 0.00 | 0.00 | 74 | 1017.8 |
| 20260506001554 | 6 | 32 | 3.2 | 8.0 | 0.00 | 0.00 | 0.00 | 74 | 1017.7 |
| 20260506000554 | 6 | 46 | 3.2 | 4.8 | 0.00 | 0.00 | 0.00 | 74 | 1017.6 |
| 20260505233554 | 6 | 27 | 4.8 | 9.7 | 0.00 | 0.00 | 0.00 | 73 | 1017.5 |
| 20260505230056 | 6 | 63 | 4.8 | 14.5 | 0.00 | 0.00 | 0.00 | 72 | 1017.8 |
| 20260505224554 | 6 | 37 | 4.8 | 14.5 | 0.00 | 0.00 | 0.00 | 72 | 1017.8 |
| 20260505224054 | 6 | 63 | 3.2 | 11.3 | 0.00 | 0.00 | 0.00 | 72 | 1017.8 |
| 20260505223554 | 6 | 54 | 3.2 | 12.9 | 0.00 | 0.00 | 0.00 | 72 | 1017.8 |
| 20260505223056 | 6 | 34 | 4.8 | 14.5 | 0.00 | 0.00 | 0.00 | 72 | 1017.7 |